Temp
-18 -18 -18 -19 -19 -19 -19 -19 -19 -18 -18 -17 -16 -16 -15 -15 -15 -15 -14 -14 -13 -12 -10 -10 -10 -9 -9 -9 -9 -8 -8 -8 -8 -9 -9 -8 -8 -8 -8 -8 -8 -7 -7
-18 -18 -18 -19 -19 -20 -19 -19 -19 -19 -19 -19 -18 -17 -16 -15 -15 -15 -15 -14 -14 -14 -13 -11 -11 -11 -10 -10 -10 -9 -9 -9 -9 -10 -8 -9 -8 -8 -9 -8 -8 -8 -7
-18 -18 -19 -19 -21 -21 -21 -21 -21 -21 -20 -20 -19 -19 -18 -17 -17 -16 -16 -15 -15 -15 -15 -14 -12 -12 -12 -11 -10 -10 -10 -11 -10 -10 -10 -9 -8 -8 -9 -9 -9 -9 -8
-19 -19 -19 -21 -22 -22 -22 -22 -22 -21 -20 -19 -19 -19 -19 -19 -18 -17 -17 -16 -16 -15 -15 -15 -14 -14 -14 -12 -11 -11 -11 -12 -12 -11 -10 -10 -10 -9 -9 -9 -9 -9 -9
-19 -19 -20 -21 -22 -22 -23 -24 -24 -24 -23 -22 -21 -21 -20 -20 -20 -19 -18 -18 -17 -16 -16 -16 -16 -15 -14 -14 -12 -12 -13 -13 -12 -12 -11 -12 -10 -10 -10 -10 -9 -9 -9
-19 -20 -20 -22 -22 -23 -24 -24 -24 -24 -25 -24 -24 -23 -22 -21 -21 -20 -20 -19 -18 -17 -17 -16 -16 -16 -15 -15 -14 -14 -14 -13 -13 -12 -12 -12 -11 -11 -11 -10 -10 -10 -10
-20 -20 -21 -22 -22 -23 -24 -24 -24 -24 -25 -26 -26 -25 -24 -23 -22 -22 -22 -21 -20 -19 -18 -18 -17 -17 -16 -16 -15 -15 -15 -14 -13 -13 -13 -12 -11 -11 -11 -11 -10 -10 -10
-20 -20 -21 -22 -22 -23 -24 -24 -24 -25 -25 -26 -27 -26 -26 -24 -23 -23 -23 -22 -21 -20 -19 -18 -18 -18 -17 -17 -16 -15 -15 -15 -14 -13 -13 -13 -12 -11 -11 -12 -11 -11 -10
-20 -21 -22 -22 -23 -23 -24 -25 -25 -25 -26 -26 -27 -27 -26 -26 -25 -24 -23 -23 -23 -21 -20 -19 -19 -18 -18 -18 -18 -17 -16 -15 -15 -14 -14 -14 -14 -13 -12 -12 -12 -11 -11
-20 -21 -22 -22 -23 -23 -24 -25 -25 -25 -25 -26 -27 -27 -27 -26 -26 -25 -24 -24 -24 -23 -22 -20 -20 -19 -19 -18 -18 -18 -18 -16 -15 -15 -15 -14 -14 -14 -14 -13 -13 -12 -12
-20 -21 -22 -23 -23 -24 -24 -25 -25 -25 -26 -26 -26 -27 -27 -27 -26 -26 -25 -25 -25 -24 -23 -22 -21 -20 -19 -19 -19 -18 -18 -17 -15 -15 -15 -15 -15 -15 -14 -14 -14 -13 -13
-20 -21 -21 -22 -23 -23 -23 -24 -25 -25 -26 -26 -26 -26 -27 -27 -27 -26 -25 -25 -25 -24 -23 -22 -21 -21 -20 -19 -19 -19 -18 -18 -17 -16 -16 -15 -15 -15 -15 -15 -14 -14 -13
-20 -21 -21 -22 -22 -23 -23 -23 -24 -25 -25 -26 -26 -26 -26 -26 -27 -26 -26 -26 -25 -24 -23 -23 -22 -21 -20 -20 -19 -19 -19 -19 -19 -18 -16 -16 -15 -15 -15 -15 -15 -15 -15
-20 -20 -21 -22 -22 -23 -23 -23 -24 -24 -25 -25 -26 -26 -26 -26 -26 -26 -26 -26 -25 -24 -23 -23 -22 -22 -21 -21 -20 -19 -19 -19 -19 -19 -18 -17 -16 -16 -15 -15 -15 -15 -15
-20 -20 -20 -21 -22 -22 -23 -23 -24 -24 -24 -25 -25 -25 -25 -25 -26 -26 -26 -25 -25 -24 -23 -23 -22 -22 -21 -21 -20 -20 -19 -19 -19 -18 -18 -18 -18 -17 -16 -16 -16 -15 -15
-20 -20 -20 -21 -21 -22 -22 -23 -23 -24 -24 -24 -24 -25 -25 -25 -25 -25 -26 -26 -25 -24 -23 -22 -22 -22 -22 -21 -21 -21 -20 -19 -19 -18 -18 -18 -18 -17 -17 -16 -16 -16 -15
-20 -20 -20 -21 -21 -22 -22 -23 -23 -23 -23 -24 -24 -24 -24 -24 -25 -25 -25 -25 -25 -24 -23 -22 -22 -21 -21 -21 -22 -21 -20 -20 -20 -19 -19 -19 -18 -18 -17 -17 -17 -17 -17
-20 -20 -20 -21 -21 -21 -22 -22 -22 -22 -23 -23 -24 -24 -24 -25 -24 -25 -24 -24 -24 -24 -24 -23 -23 -22 -22 -22 -22 -21 -21 -21 -20 -20 -20 -19 -19 -18 -18 -18 -18 -18 -18
-20 -20 -20 -20 -21 -21 -21 -21 -22 -22 -22 -23 -23 -23 -24 -24 -24 -24 -24 -24 -24 -24 -24 -23 -23 -23 -22 -22 -22 -22 -21 -21 -21 -20 -20 -20 -20 -20 -19 -19 -19 -19 -19
-20 -20 -20 -20 -20 -21 -21 -21 -21 -22 -22 -22 -23 -23 -23 -23 -23 -23 -24 -24 -24 -24 -23 -23 -23 -23 -23 -22 -22 -22 -22 -22 -21 -21 -21 -21 -21 -20 -20 -20 -20 -20 -19
-19 -19 -20 -20 -20 -20 -21 -21 -21 -22 -22 -22 -22 -22 -23 -23 -23 -23 -23 -23 -23 -24 -24 -24 -24 -24 -23 -23 -23 -23 -23 -23 -23 -22 -22 -22 -21 -21 -21 -21 -21 -20 -20
-18 -19 -19 -19 -20 -20 -20 -21 -21 -21 -22 -22 -22 -22 -22 -22 -23 -23 -23 -23 -23 -23 -23 -24 -24 -24 -24 -24 -24 -23 -23 -23 -23 -22 -22 -22 -22 -22 -22 -22 -21 -22 -21
-18 -18 -19 -19 -20 -20 -20 -20 -21 -21 -22 -22 -22 -22 -22 -23 -22 -23 -23 -23 -23 -23 -24 -24 -24 -24 -24 -24 -24 -23 -23 -23 -23 -22 -22 -22 -22 -23 -23 -23 -23 -22 -22
-18 -18 -18 -19 -19 -19 -20 -20 -20 -21 -21 -22 -22 -23 -23 -23 -23 -23 -23 -23 -23 -24 -24 -24 -24 -24 -24 -25 -25 -24 -24 -24 -23 -23 -23 -23 -23 -24 -25 -25 -24 -24 -24
-17 -17 -18 -18 -18 -19 -19 -20 -20 -21 -21 -21 -22 -23 -23 -23 -23 -23 -23 -23 -23 -24 -24 -24 -24 -24 -24 -24 -25 -24 -24 -24 -24 -24 -23 -24 -24 -25 -26 -26 -26 -25 -25
-16 -16 -17 -17 -18 -18 -19 -19 -20 -20 -21 -21 -22 -23 -24 -24 -24 -24 -24 -24 -24 -24 -24 -24 -24 -24 -24 -24 -24 -24 -24 -24 -24 -24 -24 -25 -25 -25 -26 -26 -27 -27 -26
Height
5672 5665 5658 5651 5644 5637 5630 5624 5619 5617 5615 5616 5617 5620 5625 5629 5633 5638 5644 5649 5657 5664 5675 5685 5697 5709 5722 5732 5743 5753 5763 5770 5779 5785 5791 5797 5802 5806 5811 5816 5821 5828 5834
5661 5654 5645 5636 5626 5616 5607 5601 5596 5593 5591 5590 5592 5595 5599 5606 5611 5619 5625 5631 5638 5647 5654 5665 5676 5688 5703 5713 5725 5735 5746 5755 5764 5771 5779 5785 5791 5795 5799 5804 5811 5816 5822
5650 5641 5630 5618 5607 5598 5591 5583 5575 5570 5566 5565 5567 5569 5574 5580 5586 5594 5603 5612 5618 5628 5637 5645 5655 5668 5681 5694 5705 5718 5728 5739 5747 5756 5764 5772 5779 5781 5788 5794 5799 5806 5812
5641 5630 5616 5602 5594 5586 5575 5565 5555 5549 5545 5542 5542 5544 5547 5553 5561 5570 5580 5591 5600 5608 5618 5628 5636 5647 5660 5674 5684 5703 5712 5721 5731 5741 5749 5758 5765 5771 5777 5784 5790 5794 5800
5631 5618 5603 5593 5586 5575 5560 5551 5542 5533 5526 5520 5519 5519 5521 5526 5534 5543 5555 5567 5580 5590 5600 5610 5620 5628 5640 5654 5667 5683 5692 5702 5713 5723 5735 5745 5752 5760 5766 5774 5779 5784 5790
5620 5606 5592 5584 5576 5564 5555 5545 5535 5522 5514 5506 5502 5499 5499 5506 5511 5520 5532 5544 5558 5570 5581 5591 5602 5613 5622 5635 5647 5667 5673 5684 5695 5707 5718 5730 5741 5747 5755 5761 5767 5774 5780
5612 5599 5585 5578 5569 5558 5548 5538 5527 5514 5504 5498 5492 5487 5486 5489 5494 5501 5508 5521 5537 5550 5563 5574 5586 5597 5608 5616 5629 5648 5655 5664 5676 5688 5700 5712 5724 5736 5741 5748 5755 5761 5767
5608 5594 5580 5571 5562 5553 5542 5533 5521 5508 5498 5491 5485 5480 5477 5479 5481 5488 5494 5503 5515 5530 5545 5558 5570 5581 5592 5602 5611 5626 5634 5642 5658 5671 5684 5698 5709 5718 5723 5731 5740 5747 5755
5603 5589 5575 5564 5557 5548 5539 5529 5518 5506 5496 5487 5479 5474 5472 5471 5473 5479 5484 5492 5500 5513 5530 5543 5555 5567 5577 5586 5596 5605 5615 5623 5640 5652 5666 5678 5692 5701 5709 5714 5723 5732 5740
5599 5587 5573 5561 5551 5544 5536 5527 5518 5507 5496 5487 5479 5473 5469 5468 5468 5472 5477 5484 5492 5502 5515 5529 5542 5553 5564 5574 5583 5591 5598 5609 5625 5642 5652 5661 5673 5684 5690 5699 5709 5717 5725
5599 5586 5572 5559 5548 5538 5531 5524 5517 5508 5498 5488 5482 5475 5470 5468 5468 5469 5474 5480 5487 5496 5508 5518 5530 5540 5553 5564 5572 5578 5589 5598 5614 5627 5635 5644 5655 5665 5676 5686 5694 5700 5711
5598 5585 5573 5559 5547 5537 5527 5520 5515 5508 5500 5492 5484 5479 5475 5471 5470 5470 5473 5478 5484 5493 5502 5512 5522 5531 5542 5552 5562 5570 5579 5588 5596 5607 5618 5628 5640 5651 5660 5669 5679 5687 5698
5599 5587 5574 5561 5548 5537 5527 5518 5513 5507 5501 5495 5489 5483 5478 5475 5473 5472 5473 5477 5483 5490 5497 5506 5514 5523 5533 5543 5553 5561 5568 5576 5586 5594 5604 5615 5626 5636 5646 5654 5662 5671 5677
5602 5589 5578 5565 5552 5539 5529 5520 5512 5506 5500 5495 5491 5486 5482 5478 5476 5475 5475 5477 5481 5487 5494 5501 5509 5517 5525 5534 5542 5551 5559 5566 5574 5583 5591 5602 5612 5620 5629 5637 5644 5651 5660
5604 5593 5580 5568 5556 5544 5532 5523 5515 5508 5501 5496 5491 5488 5484 5481 5479 5478 5477 5477 5480 5486 5492 5498 5506 5513 5520 5527 5534 5541 5549 5556 5563 5572 5581 5587 5593 5601 5610 5618 5624 5632 5639
5607 5596 5584 5572 5560 5549 5538 5527 5518 5511 5505 5499 5493 5489 5486 5484 5481 5481 5480 5480 5480 5484 5490 5496 5502 5508 5514 5521 5527 5534 5541 5548 5553 5561 5569 5574 5580 5587 5595 5601 5607 5613 5620
5609 5599 5589 5578 5566 5554 5543 5534 5523 5515 5508 5502 5497 5491 5486 5484 5483 5482 5482 5483 5483 5485 5488 5493 5498 5503 5507 5513 5518 5524 5531 5537 5543 5549 5555 5561 5567 5574 5580 5586 5590 5597 5601
5612 5603 5592 5581 5571 5561 5550 5540 5531 5521 5513 5505 5500 5495 5489 5484 5483 5483 5484 5484 5485 5486 5487 5490 5494 5497 5501 5504 5509 5514 5520 5525 5531 5537 5542 5548 5553 5558 5564 5570 5575 5580 5584
5616 5606 5596 5585 5575 5565 5556 5547 5538 5528 5520 5512 5505 5498 5493 5488 5484 5483 5484 5484 5485 5485 5486 5488 5491 5494 5496 5499 5502 5505 5509 5515 5520 5524 5529 5534 5538 5543 5548 5553 5558 5562 5567
5618 5610 5600 5591 5581 5571 5561 5553 5543 5533 5525 5517 5510 5503 5498 5493 5489 5486 5484 5483 5484 5485 5486 5487 5488 5489 5491 5493 5496 5499 5502 5504 5508 5512 5516 5520 5524 5528 5531 5536 5541 5545 5549
5622 5613 5604 5595 5586 5577 5568 5558 5548 5540 5532 5523 5516 5509 5503 5497 5493 5490 5487 5485 5483 5482 5482 5483 5484 5485 5487 5488 5489 5491 5494 5497 5499 5502 5504 5507 5511 5514 5516 5519 5523 5527 5532
5626 5617 5608 5598 5590 5581 5572 5561 5553 5545 5537 5529 5522 5515 5508 5502 5496 5492 5488 5486 5484 5482 5480 5479 5479 5479 5480 5482 5483 5485 5487 5488 5490 5492 5493 5495 5497 5499 5501 5503 5506 5509 5513
5628 5620 5611 5602 5594 5585 5577 5567 5559 5551 5542 5534 5526 5519 5512 5505 5498 5493 5489 5485 5482 5481 5479 5478 5475 5474 5473 5474 5476 5477 5478 5480 5481 5482 5483 5482 5481 5480 5481 5485 5488 5492 5496
5631 5622 5614 5606 5597 5590 5580 5572 5563 5554 5546 5538 5530 5523 5516 5509 5502 5497 5491 5486 5482 5479 5478 5476 5474 5471 5469 5466 5467 5468 5470 5471 5471 5471 5472 5471 5468 5465 5463 5467 5470 5474 5478
5634 5626 5617 5609 5600 5591 5583 5574 5566 5557 5549 5540 5533 5525 5518 5511 5504 5498 5492 5487 5483 5478 5475 5472 5470 5468 5466 5464 5462 5462 5462 5463 5462 5461 5460 5461 5458 5455 5453 5452 5453 5456 5459
5637 5628 5620 5612 5603 5594 5585 5577 5567 5559 5549 5540 5533 5524 5518 5512 5507 5500 5494 5488 5483 5479 5475 5471 5468 5465 5463 5462 5460 5459 5458 5457 5455 5453 5452 5451 5449 5446 5445 5444 5442 5441 5441
Wind_Speed
43 43 46 51 54 57 61 62 64 66 69 71 72 71 70 69 68 67 71 73 72 80 92 92 88 86 83 85 81 77 73 68 65 63 59 49 51 53 55 60 59 60 57
40 46 52 59 61 64 64 62 64 68 72 74 75 77 77 76 74 72 70 72 74 71 75 91 91 89 86 86 85 82 78 74 71 62 68 59 56 59 57 57 60 59 59
46 54 60 63 60 50 52 54 57 59 62 66 69 75 80 81 80 77 75 73 73 74 70 70 88 91 89 88 88 86 83 77 74 73 64 66 62 49 56 56 57 59 60
52 57 63 54 44 52 57 57 55 56 61 64 64 66 70 79 82 83 80 77 75 74 74 70 70 85 92 90 92 86 85 82 76 75 69 70 69 62 56 60 58 59 59
54 56 55 37 44 53 44 36 39 41 42 49 56 59 61 63 78 82 82 80 77 76 72 72 69 69 87 93 92 87 87 85 83 77 76 68 67 64 51 56 57 60 61
53 55 45 35 43 46 36 39 43 42 38 37 38 43 51 56 55 75 81 81 80 77 75 71 71 67 71 91 94 85 88 89 87 87 84 74 63 67 60 56 55 59 61
51 52 42 35 41 45 38 39 46 38 34 34 29 31 37 41 49 51 65 81 80 78 76 72 69 68 64 77 92 89 90 89 91 90 89 84 73 64 62 66 60 59 61
50 50 44 36 38 43 40 38 43 38 34 29 27 25 26 29 37 44 43 60 75 78 76 72 67 66 63 62 79 92 92 95 92 92 91 88 84 83 65 62 68 62 59
49 50 47 38 37 39 38 37 40 37 34 31 27 22 21 22 27 35 41 45 58 71 73 70 66 64 62 56 64 79 90 96 95 94 93 92 86 83 93 86 71 67 70
51 50 46 43 34 33 36 36 37 39 32 29 27 22 16 15 18 25 32 39 42 57 65 66 63 62 61 58 54 67 77 94 96 92 92 93 93 93 86 91 83 80 74
51 53 49 42 41 31 31 32 33 34 37 30 26 23 17 11 10 14 19 26 34 44 52 55 57 59 59 57 54 57 68 78 91 91 90 93 94 95 95 93 88 86 83
51 53 53 48 40 38 29 26 27 29 28 30 25 21 16 12 8 7 12 22 29 35 43 48 50 55 57 56 54 52 55 65 71 81 88 89 91 92 93 94 93 93 87
51 52 52 51 46 38 37 25 22 23 25 25 26 22 14 11 7 5 6 14 25 30 35 41 44 50 53 54 52 50 50 56 64 66 76 84 83 84 88 90 91 91 95
53 54 53 52 51 45 38 35 26 23 21 19 18 20 18 10 7 4 6 10 18 25 29 35 39 44 48 49 50 50 50 52 56 60 60 66 70 72 72 73 77 85 88
50 54 55 54 52 50 45 38 33 30 24 20 17 15 13 15 9 1 3 9 13 20 25 29 33 38 44 48 50 51 52 52 55 57 57 60 65 65 66 67 70 75 80
48 50 52 54 54 53 50 46 39 33 30 29 21 16 13 9 10 9 2 3 9 14 19 24 30 34 38 42 44 46 49 51 53 55 56 60 61 62 63 63 65 73 79
47 48 49 50 53 54 52 50 45 39 32 29 28 25 16 9 5 3 5 4 1 6 12 18 24 29 34 37 39 43 46 47 49 51 53 55 58 60 61 63 63 66 70
46 48 49 50 49 50 52 50 49 46 39 34 28 28 28 15 5 2 2 3 3 7 7 11 15 22 27 31 35 39 43 45 48 49 51 54 56 58 60 60 61 63 63
46 46 48 49 49 48 47 49 49 48 46 41 35 30 27 27 14 4 3 4 4 4 5 12 17 19 23 25 29 35 40 44 47 50 52 53 55 58 60 61 62 62 62
44 45 47 47 48 49 49 46 44 46 46 44 42 38 32 25 24 19 9 6 7 7 7 8 10 15 23 29 30 31 34 37 42 48 53 55 56 60 63 63 63 64 64
46 46 46 47 47 48 48 48 47 44 42 43 41 39 36 30 23 19 17 15 10 8 11 12 14 14 14 15 20 28 34 39 42 43 45 49 57 61 63 65 67 68 67
48 47 48 46 47 47 47 47 46 46 44 41 38 38 36 34 30 24 18 15 13 11 11 9 15 19 21 21 21 22 23 24 26 31 34 43 54 58 61 66 69 70 70
50 52 51 49 46 46 46 44 44 45 45 43 41 37 35 34 33 30 24 18 14 11 10 9 11 11 17 23 26 28 28 29 29 32 33 34 41 53 63 65 65 69 71
50 51 51 50 50 50 47 44 44 43 41 41 41 38 34 32 30 29 26 23 19 13 11 11 10 10 11 13 19 25 29 29 31 32 32 31 31 38 47 59 65 66 66
49 52 52 53 53 51 49 47 44 42 41 39 39 37 35 31 30 28 26 26 22 20 17 14 12 11 11 9 6 12 19 26 30 33 34 29 32 28 30 38 48 60 65
47 50 51 53 54 52 50 49 46 44 42 38 37 37 34 31 28 27 26 26 26 24 19 18 18 16 13 11 10 9 9 11 15 23 30 32 33 34 32 30 32 41 51
Wind_Direction
311 309 307 308 301 297 292 284 277 271 267 264 261 257 253 250 248 246 244 244 241 238 234 234 232 233 231 231 230 230 230 230 230 227 234 234 236 237 238 237 238 236 235
318 318 317 314 307 301 296 289 281 274 268 264 260 257 254 250 247 244 244 243 242 240 238 233 231 230 230 230 229 229 227 227 227 228 231 232 237 238 235 237 237 237 235
324 322 320 313 308 304 302 296 289 280 273 267 263 260 255 252 247 245 241 241 241 240 238 236 232 228 227 227 227 227 227 225 225 224 228 230 230 227 233 237 238 238 238
323 324 322 318 314 310 310 304 295 283 274 269 266 263 256 251 249 245 242 238 238 239 238 236 232 230 225 225 227 224 226 225 222 223 224 226 229 235 239 239 238 237 237
326 329 326 321 320 325 322 326 321 310 293 279 270 265 260 253 243 242 241 238 235 236 237 237 234 229 227 224 225 222 224 224 222 222 221 223 227 228 231 232 234 238 240
333 334 329 326 334 335 331 331 329 317 308 294 280 268 258 252 250 240 237 236 234 232 234 235 234 233 227 225 224 221 223 223 223 221 221 215 224 223 228 232 234 234 236
339 339 331 326 334 340 330 330 332 327 313 313 293 279 266 256 247 248 238 233 232 230 230 232 231 232 232 224 224 221 222 222 223 224 222 220 215 217 225 228 228 232 234
345 346 338 321 329 337 337 336 338 337 330 323 311 290 275 258 246 244 240 230 228 228 228 229 229 228 229 229 222 222 224 222 222 224 224 223 220 216 222 221 221 225 224
352 352 347 330 324 333 338 344 347 348 341 338 329 304 281 271 251 238 235 230 228 221 223 226 227 225 226 227 227 221 223 225 220 222 223 223 222 224 224 229 225 220 224
359 359 354 350 331 326 332 338 344 355 351 349 347 340 308 285 264 246 235 233 230 223 216 219 223 222 222 225 226 227 221 226 224 223 224 224 223 221 224 228 229 229 228
3 6 3 355 354 336 326 330 341 350 0 356 355 353 354 326 284 258 238 234 227 222 217 214 217 219 219 222 225 228 228 223 227 227 227 226 226 227 228 230 231 230 226
8 10 9 5 356 356 339 329 335 345 357 7 357 355 354 359 349 290 243 226 221 219 219 218 213 215 215 219 224 229 229 228 224 229 230 230 230 230 231 232 232 235 234
11 11 13 13 8 2 3 347 342 344 350 356 8 5 346 350 335 310 279 230 219 217 217 220 217 215 214 217 220 226 228 228 227 225 229 234 234 235 235 235 236 235 237
15 14 14 17 18 15 9 12 1 351 350 351 351 6 9 340 318 307 246 231 213 214 217 220 221 217 215 215 218 221 225 225 227 228 225 226 232 235 236 237 238 240 240
14 16 17 17 20 21 20 16 13 15 7 359 352 351 0 9 7 261 253 221 212 211 217 221 225 222 219 217 219 220 222 223 224 228 229 228 227 227 230 234 237 239 239
13 15 17 19 18 22 23 22 22 16 14 19 8 353 348 350 7 3 2 213 207 209 220 225 226 225 222 222 223 225 226 228 229 230 230 230 230 230 231 233 237 239 240
13 14 17 20 21 21 22 23 24 25 21 17 22 24 3 336 342 345 352 340 248 202 214 224 228 230 225 223 225 229 230 231 233 234 235 236 236 235 236 237 238 240 241
18 19 18 20 22 23 23 24 26 26 25 24 18 17 21 8 327 335 32 34 304 259 228 221 225 232 234 234 232 232 232 234 236 237 239 240 239 239 239 239 240 242 244
19 20 21 23 23 23 25 26 26 27 28 28 26 22 17 26 21 333 262 265 276 277 252 244 243 237 235 236 238 239 240 239 238 239 239 240 243 244 244 243 242 241 242
21 22 22 22 23 23 24 25 26 29 29 28 29 26 26 24 31 35 9 316 289 277 268 259 253 249 246 247 245 243 243 245 245 244 243 243 242 243 244 246 245 243 242
27 29 27 25 24 24 22 23 23 24 25 28 28 29 28 26 25 21 26 28 9 304 271 259 258 257 257 252 250 252 252 251 253 254 253 250 246 245 244 244 245 245 243
31 32 33 29 28 28 27 23 20 20 19 22 25 26 25 28 29 21 12 4 3 5 6 328 277 262 253 251 249 250 253 254 254 252 257 259 257 254 248 245 244 244 244
28 29 29 29 27 27 29 25 23 19 16 15 17 19 23 22 23 25 20 11 360 347 347 343 348 309 269 256 250 249 250 253 257 260 261 274 268 253 247 248 246 245 244
25 24 25 25 24 24 24 25 25 22 17 11 10 12 13 16 21 18 19 20 17 7 346 340 335 340 335 281 263 254 252 252 256 261 263 269 279 267 257 248 244 245 246
18 17 20 20 20 21 20 20 21 21 20 11 6 3 4 9 12 16 19 19 19 23 18 6 349 341 338 351 311 271 264 261 260 262 265 267 270 275 267 258 252 248 246
12 12 14 15 16 18 18 16 16 16 13 9 4 356 356 1 5 8 11 19 21 19 18 20 20 12 359 342 331 322 310 296 279 273 270 270 268 269 269 268 264 257 251